• Join FlightAware (Why Join?)
  • Login
  • US Flag 
08:26AM EST


 

Airport Tracker/Info


-or-


 

Live Flight TrackerFlight Track Log ✈ SWA3497 ✈ 19-Apr-2013 ✈ KIAD - KMDW

Flight Track Log - Related Links

Times and Time Zones

All times are in EDT time to prevent confusion due to time zone crossing. See the SWA3497 flight status page for this flight to view local times or setup timezone preferences in your user account.

Time Position Orientation Groundspeed Altitude Reporting Facility
EDT Latitude Longitude Course Direction KTS MPH feet Rate Location/Type
09:52AM 38.9500 -77.5167 229° Southwest 179 206 1,700  Level Potomac TRACON
09:53AM 38.9167 -77.5667 229° Southwest 192 221 4,500 2,820 Climbing Potomac TRACON
09:54AM 38.9042 -77.6428 258° West 227 261 6,800 2,040 Climbing Washington Center
09:55AM 38.8967 -77.7228 263° West 243 280 8,400 2,160 Climbing Washington Center
09:56AM 38.8844 -77.8211 261° West 252 290 11,200 3,240 Climbing Washington Center
09:57AM 38.8761 -77.9275 264° West 276 318 14,900 3,300 Climbing Washington Center
09:58AM 38.9011 -78.0322 287° West 294 338 17,900 2,700 Climbing Washington Center
09:59AM 38.9364 -78.1428 292° West 311 358 20,400 1,980 Climbing Washington Center
10:00AM 38.9631 -78.2639 286° West 332 382 21,900 1,920 Climbing Washington Center
10:01AM 38.9683 -78.3978 273° West 362 417 24,300 1,800 Climbing Washington Center
10:02AM 38.9711 -78.5367 272° West 379 436 25,600 1,440 Climbing Washington Center
10:03AM 38.9758 -78.6836 272° West 403 464 27,200 1,440 Climbing Washington Center
10:04AM 38.9789 -78.8039 272° West 420 483 28,500 1,860 Climbing Washington Center
10:05AM 38.9906 -78.9833 275° West 425 489 31,000 2,220 Climbing Washington Center
10:06AM 39.0031 -79.1308 276° West 425 489 33,000 1,500 Climbing Washington Center
10:07AM 39.0156 -79.2731 276° West 420 483 34,100 960 Climbing Washington Center
10:08AM 39.0236 -79.4178 274° West 420 483 35,000 420 Climbing Washington Center
10:09AM 39.0356 -79.5600 276° West 410 472 35,000  Level Washington Center
10:10AM 39.0453 -79.7050 275° West 408 470 35,000  Level Washington Center
10:11AM 39.0547 -79.8525 275° West 408 470 35,000  Level Washington Center
10:12AM 39.0658 -80.0083 275° West 423 487 35,000  Level Washington Center
10:13AM 39.0714 -80.1467 273° West 401 461 35,000  Level Indianapolis Center
10:14AM 39.0803 -80.2900 275° West 401 461 35,100 480 Climbing Indianapolis Center
10:15AM 39.0892 -80.4294 275° West 394 453 36,000 420 Climbing Indianapolis Center
10:16AM 39.1008 -80.5978 275° West 395 455 36,000  Level Indianapolis Center
10:17AM 39.1097 -80.7397 275° West 398 458 36,000  Level Indianapolis Center
10:18AM 39.1172 -80.8819 274° West 399 459 36,000  Level Indianapolis Center
10:19AM 39.1683 -81.0158 296° West 421 484 36,000  Level Indianapolis Center
10:20AM 39.2292 -81.1497 300° West 434 499 36,000  Level Indianapolis Center
10:21AM 39.2906 -81.2797 301° West 429 494 36,000  Level Indianapolis Center
10:22AM 39.3622 -81.4378 300° West 426 490 36,000  Level Indianapolis Center
10:23AM 39.4228 -81.5703 301° West 429 494 36,000  Level Indianapolis Center
10:24AM 39.4833 -81.7014 301° West 427 491 36,000  Level Indianapolis Center
10:25AM 39.5422 -81.8356 300° West 429 494 36,000  Level Indianapolis Center
10:26AM 39.6031 -81.9681 301° West 428 493 36,000 300 Level Indianapolis Center
10:28AM 39.6694 -82.0898 305° West  Level FlightAware Approximate
10:28AM 39.7356 -82.2639 305° West 431 496 37,100  Level Indianapolis Center
10:30AM 39.7936 -82.3958 300° West 420 483 38,000 420 Climbing Indianapolis Center
10:31AM 39.8508 -82.5233 300° West 408 470 38,000  Level Indianapolis Center
10:32AM 39.9083 -82.6536 300° West 412 474 38,000  Level Indianapolis Center
10:33AM 39.9650 -82.7831 300° West 409 471 38,000  Level Indianapolis Center
10:34AM 40.0219 -82.9128 300° West 410 472 38,000  Level Indianapolis Center
10:35AM 40.0792 -83.0431 300° West 412 474 38,000  Level Indianapolis Center
10:36AM 40.1458 -83.1969 300° West 417 480 38,000  Level Indianapolis Center
10:37AM 40.2031 -83.3297 299° West 419 482 38,000  Level Indianapolis Center
10:38AM 40.2606 -83.4636 299° West 420 483 38,000 -180 Level Indianapolis Center
10:39AM 40.3169 -83.5975 299° West 419 482 37,700 -660 Descending Indianapolis Center
10:40AM 40.3739 -83.7314 299° West 420 483 36,700 -1,380 Descending Indianapolis Center
10:41AM 40.4339 -83.8706 300° West 432 497 34,900 -1,800 Descending Indianapolis Center
10:42AM 40.5039 -84.0375 299° West 443 510 33,100 -1,440 Descending Indianapolis Center
10:43AM 40.5631 -84.1794 299° West 442 509 32,000 -1,080 Descending Indianapolis Center
10:44AM 40.6208 -84.3169 299° West 431 496 31,000 -1,020 Descending Indianapolis Center
10:45AM 40.6669 -84.4267 299° West 421 484 30,100 -540 Descending Chicago Center
10:46AM 40.7222 -84.5583 299° West 413 475 30,000 -60 Descending Chicago Center
10:47AM 40.7767 -84.6889 299° West 409 471 30,000 -300 Level Chicago Center
10:48AM 40.8294 -84.8192 298° West 405 466 29,400 -960 Descending Chicago Center
10:49AM 40.8911 -84.9697 298° West 391 450 28,100 -1,140 Descending Chicago Center
10:50AM 40.9400 -85.0892 298° West 375 432 27,100 -1,020 Descending Chicago Center
10:51AM 41.0028 -85.2031 306° West 390 449 26,100 -1,020 Descending Chicago Center
10:52AM 41.1064 -85.2872 329° Northwest 430 495 25,100 -1,020 Descending Chicago Center
10:53AM 41.2092 -85.3689 329° Northwest 432 497 24,100 -1,020 Descending Chicago Center
10:54AM 41.3092 -85.4492 329° Northwest 423 487 23,000 -1,020 Descending Chicago Center
10:55AM 41.4067 -85.5258 329° Northwest 408 470 22,000 -1,020 Descending Chicago Center
10:56AM 41.4975 -85.6106 325° Northwest 388 447 21,000 -1,020 Descending Chicago Center
10:57AM 41.5175 -85.7164 284° West 300 345 20,000 -1,080 Descending Chicago Center
10:58AM 41.5203 -85.8358 272° West 270 311 18,800 -1,260 Descending Chicago Center
10:59AM 41.5231 -85.9339 272° West 266 306 17,500 -1,140 Descending Chicago Center
11:00AM 41.5239 -86.0333 271° West 267 307 16,500 -1,020 Descending Chicago Center
11:01AM 41.5242 -86.1342 270° West 271 312 15,500 -1,320 Descending Chicago Center
11:02AM 41.5228 -86.2319 269° West 266 306 13,800 -1,800 Descending Chicago Center
11:03AM 41.5231 -86.3347 270° West 274 315 11,900 -1,500 Descending Chicago Center
11:04AM 41.5219 -86.4353 269° West 272 313 10,700 -960 Descending Chicago Center
11:05AM 41.5225 -86.5475 270° West 255 293 10,000 -360 Descending Chicago Center
11:06AM 41.5217 -86.6433 269° West 257 296 10,000  Level Chicago Center
11:07AM 41.5203 -86.7353 269° West 260 299 10,000  Level Chicago Center
11:08AM 41.5200 -86.8297 270° West 256 295 10,000 -300 Level Chicago Center
11:10AM 41.5189 -86.9431 269° West 253 291 9,400 -840 Descending Chicago Center
11:11AM 41.5175 -87.0297 269° West 237 273 8,400 -1,080 Descending Chicago Center
11:12AM 41.5164 -87.1147 269° West 231 266 7,300 -840 Descending Chicago Center
11:12AM 41.5333 -87.1833 288° West 236 272 7,000 -480 Descending Chicago TRACON
11:13AM 41.5500 -87.2667 285° West 235 270 6,500 -780 Descending Chicago TRACON
11:14AM 41.5833 -87.3500 298° West 233 268 5,500 -960 Descending Chicago TRACON
11:15AM 41.6000 -87.4333 285° West 235 270 4,500 -1,080 Descending Chicago TRACON
11:16AM 41.6089 -87.4553 298° West 232 267 4,000 -480 Descending Chicago Center
11:17AM 41.6306 -87.5328 291° West 229 264 3,900 -300 Descending Chicago Center
11:18AM 41.6672 -87.5878 312° West 214 246 3,500 -720 Descending Chicago Center
11:18AM 41.7000 -87.6333 314° West 200 230 2,700 -900 Descending Chicago TRACON
11:19AM 41.7333 -87.6667 323° Northwest 170 196 2,100 -420 Descending Chicago TRACON
11:20AM 41.7833 -87.6833 346° North 190 219 1,900 -420 Descending Chicago TRACON
11:21AM 41.8167 -87.7167 323° Northwest 137 158 1,300 -600 Descending Chicago TRACON
11:24AM 41.7833 -87.7500 340° North  Level FlightAware Approximate